CW2014 Weather Reports


time (UTC)temp
F
wind
direction
speed
knots
gust
knots
rain 1hr
in
rain 24hr
in
rain mn
in
humidity
%
barometer
mb
20260906194557 100 245 1.7 7.0 0.00 0.00 0.00 26 1008.6
20260906194025 100 10 2.6 9.6 0.00 0.00 0.00 27 1008.7
20260906193525 100 20 3.5 9.6 0.00 0.00 0.00 26 1008.8
20260906193103 100 329 2.6 7.0 0.00 0.00 0.00 27 1008.7
20260906192524 100 321 1.7 7.8 0.00 0.00 0.00 26 1008.7
20260906192026 100 0 0.9 7.8 0.00 0.00 0.00 27 1008.8
20260906191556 101 318 1.7 7.8 0.00 0.00 0.00 26 1008.8
20260906191026 101 219 1.7 7.8 0.00 0.00 0.00 27 1008.8
20260906190523 100 233 2.6 7.8 0.00 0.00 0.00 28 1008.9
20260906190052 100 302 2.6 7.8 0.00 0.00 0.00 28 1009.1
20260906185523 100 217 0.9 7.0 0.00 0.00 0.00 27 1009.2
20260906185024 100 119 1.7 7.0 0.00 0.00 0.00 27 1009.2
20260906184550 100 197 1.7 7.0 0.00 0.00 0.00 28 1009.4
20260906184023 99 258 2.6 7.0 0.00 0.00 0.00 29 1009.5
20260906183526 99 342 0.0 7.8 0.00 0.00 0.00 28 1009.6
20260906183045 98 215 1.7 8.7 0.00 0.00 0.00 29 1009.7
20260906182531 98 303 1.7 8.7 0.00 0.00 0.00 29 1009.8
20260906182026 98 315 1.7 8.7 0.00 0.00 0.00 29 1009.8
20260906181610 97 0 0.9 7.0 0.00 0.00 0.00 30 1009.9
20260906181024 97 216 1.7 7.0 0.00 0.00 0.00 30 1010.0
20260906180524 98 234 1.7 6.1 0.00 0.00 0.00 30 1010.0
20260906180046 97 243 1.7 7.8 0.00 0.00 0.00 31 1010.0
20260906175524 97 213 0.9 7.8 0.00 0.00 0.00 31 1010.1
20260906175026 97 337 1.7 7.8 0.00 0.00 0.00 31 1010.2
20260906174553 97 301 0.9 6.1 0.00 0.00 0.00 31 1010.1
20260906174027 96 194 1.7 6.1 0.00 0.00 0.00 31 1010.2
20260906173527 95 227 0.9 6.1 0.00 0.00 0.00 33 1010.3
20260906173049 94 312 1.7 6.1 0.00 0.00 0.00 34 1010.4
20260906172522 94 309 1.7 7.0 0.00 0.00 0.00 33 1010.4
20260906172029 94 273 1.7 7.0 0.00 0.00 0.00 33 1010.4
20260906171602 94 0 0.9 7.0 0.00 0.00 0.00 34 1010.6
20260906171025 94 360 1.7 7.0 0.00 0.00 0.00 34 1010.6
20260906170526 93 5 0.9 3.5 0.00 0.00 0.00 34 1010.6
20260906170058 93 175 0.9 6.1 0.00 0.00 0.00 35 1010.5
20260906165528 93 303 1.7 6.1 0.00 0.00 0.00 35 1010.6
20260906165029 93 0 0.9 6.1 0.00 0.00 0.00 35 1010.5
20260906164546 93 189 0.9 7.0 0.00 0.00 0.00 35 1010.6
20260906164023 92 287 1.7 7.0 0.00 0.00 0.00 34 1010.6
20260906163523 92 313 0.9 4.3 0.00 0.00 0.00 36 1010.5
20260906163052 92 333 0.9 5.2 0.00 0.00 0.00 35 1010.5
20260906162526 92 207 1.7 5.2 0.00 0.00 0.00 36 1010.5
20260906162025 91 261 0.9 5.2 0.00 0.00 0.00 36 1010.6
20260906161547 91 263 1.7 4.3 0.00 0.00 0.00 36 1010.5
20260906161024 91 0 0.9 4.3 0.00 0.00 0.00 37 1010.6
20260906160525 91 268 0.9 4.3 0.00 0.00 0.00 37 1010.6
20260906160053 91 263 0.0 4.3 0.00 0.00 0.00 38 1010.6
20260906155523 90 271 0.0 4.3 0.00 0.00 0.00 38 1010.6
20260906155023 90 5 1.7 4.3 0.00 0.00 0.00 38 1010.7
20260906154547 90 0 0.0 3.5 0.00 0.00 0.00 39 1010.7
20260906154025 90 333 0.9 3.5 0.00 0.00 0.00 39 1010.7
20260906153525 89 226 0.0 3.5 0.00 0.00 0.00 40 1010.8
20260906153047 89 192 0.0 3.5 0.00 0.00 0.00 40 1010.9
20260906152526 89 192 0.9 3.5 0.00 0.00 0.00 42 1010.8
20260906152025 88 189 0.0 2.6 0.00 0.00 0.00 44 1010.8
20260906151552 88 148 0.9 3.5 0.00 0.00 0.00 45 1010.8
20260906151023 87 148 0.0 4.3 0.00 0.00 0.00 46 1010.8
20260906150523 86 169 0.9 4.3 0.00 0.00 0.00 48 1010.7
20260906150054 86 141 0.9 5.2 0.00 0.00 0.00 48 1010.7
20260906145524 86 154 0.9 5.2 0.00 0.00 0.00 48 1010.7
20260906145027 85 148 1.7 5.2 0.00 0.00 0.00 48 1010.8
20260906144607 85 0 1.7 4.3 0.00 0.00 0.00 48 1010.8
20260906144024 85 135 0.9 2.6 0.00 0.00 0.00 50 1010.7
20260906143523 85 107 0.9 2.6 0.00 0.00 0.00 49 1010.7
20260906143050 85 0 0.0 3.5 0.00 0.00 0.00 50 1010.7
20260906142524 84 0 0.9 3.5 0.00 0.00 0.00 51 1010.6
20260906142025 84 90 0.9 2.6 0.00 0.00 0.00 52 1010.6
20260906141547 83 0 0.0 2.6 0.00 0.00 0.00 53 1010.5
20260906141025 83 0 0.0 0.0 0.00 0.00 0.00 53 1010.3
20260906140525 82 0 0.0 0.0 0.00 0.00 0.00 53 1010.2
20260906140045 82 0 0.0 2.6 0.00 0.00 0.00 53 1010.0
20260906135526 81 0 0.0 3.5 0.00 0.00 0.00 54 1009.9
20260906135022 81 137 0.0 3.5 0.00 0.00 0.00 55 1009.9
20260906134551 80 159 0.0 3.5 0.00 0.00 0.00 55 1009.8
20260906134024 80 159 0.9 3.5 0.00 0.00 0.00 55 1009.9
20260906133522 80 159 0.9 3.5 0.00 0.00 0.00 56 1009.8
20260906133104 79 159 0.9 3.5 0.00 0.00 0.00 56 1009.7
20260906132525 79 159 0.9 3.5 0.00 0.00 0.00 57 1009.6
20260906132023 79 159 0.0 2.6 0.00 0.00 0.00 58 1009.7
20260906131547 79 159 0.9 3.5 0.00 0.00 0.00 59 1009.6
20260906131024 79 159 0.9 3.5 0.00 0.00 0.00 59 1009.5
20260906130527 79 0 0.9 3.5 0.00 0.00 0.00 59 1009.6
20260906130058 79 200 0.9 2.6 0.00 0.00 0.00 59 1009.7
20260906125524 79 200 0.0 1.7 0.00 0.00 0.00 58 1009.5
20260906125026 79 0 0.0 0.9 0.00 0.00 0.00 58 1009.5
20260906124543 79 0 0.0 1.7 0.00 0.00 0.00 57 1009.4
20260906124024 79 0 0.0 1.7 0.00 0.00 0.00 57 1009.5
20260906123523 79 200 0.0 1.7 0.00 0.00 0.00 57 1009.4
20260906123049 79 0 0.0 0.0 0.00 0.00 0.00 56 1009.4
20260906122524 80 0 0.0 0.0 0.00 0.00 0.00 55 1009.4
20260906122025 80 0 0.0 0.0 0.00 0.00 0.00 56 1009.4
20260906121547 80 0 0.0 0.0 0.00 0.00 0.00 55 1009.4
20260906121026 80 0 0.0 0.0 0.00 0.00 0.00 54 1009.4
20260906120526 80 0 0.0 0.0 0.00 0.00 0.00 54 1009.4
20260906120045 80 0 0.0 0.0 0.00 0.00 0.00 55 1009.4
20260906115523 80 0 0.0 0.0 0.00 0.00 0.00 54 1009.3
20260906115024 80 0 0.0 0.9 0.00 0.00 0.00 54 1009.3
20260906114556 80 0 0.0 0.9 0.00 0.00 0.00 54 1009.3
20260906114024 81 0 0.0 1.7 0.00 0.00 0.00 54 1009.4
20260906113524 81 0 0.0 1.7 0.00 0.00 0.00 54 1009.3
20260906113047 81 201 0.0 0.9 0.00 0.00 0.00 54 1009.3
20260906112524 81 0 0.0 0.9 0.00 0.00 0.00 54 1009.3
20260906112027 81 0 0.0 1.7 0.00 0.00 0.00 54 1009.4
20260906111546 81 201 0.0 1.7 0.00 0.00 0.00 53 1009.3
20260906111024 81 0 0.0 1.7 0.00 0.00 0.00 54 1009.2
20260906110524 81 201 0.0 1.7 0.00 0.00 0.00 53 1009.2
20260906110050 81 0 0.0 0.9 0.00 0.00 0.00 54 1009.1
20260906105523 81 0 0.0 1.7 0.00 0.00 0.00 54 1009.2
20260906105023 81 0 0.0 2.6 0.00 0.00 0.00 53 1009.2
20260906104557 81 201 0.9 2.6 0.00 0.00 0.00 53 1009.1
20260906104028 81 201 0.9 1.7 0.00 0.00 0.00 53 1009.2
20260906103523 81 201 0.0 1.7 0.00 0.00 0.00 53 1009.2
20260906103048 81 0 0.0 1.7 0.00 0.00 0.00 54 1009.1
20260906102527 81 0 0.0 1.7 0.00 0.00 0.00 53 1009.1
20260906102023 82 201 0.0 1.7 0.00 0.00 0.00 53 1009.1
20260906101546 82 0 0.0 0.9 0.00 0.00 0.00 53 1009.2
20260906101024 82 0 0.0 1.7 0.00 0.00 0.00 52 1009.0
20260906100525 82 0 0.0 1.7 0.00 0.00 0.00 52 1009.1
20260906100052 82 0 0.0 1.7 0.00 0.00 0.00 52 1009.0
20260906095526 82 201 0.0 1.7 0.00 0.00 0.00 52 1009.0
20260906095023 82 201 0.9 1.7 0.00 0.00 0.00 51 1009.0
20260906094602 82 0 0.0 0.0 0.00 0.00 0.00 50 1009.0
20260906094026 83 0 0.0 0.9 0.00 0.00 0.00 50 1009.0
20260906093525 83 0 0.0 1.7 0.00 0.00 0.00 49 1009.0
20260906093108 83 0 0.0 1.7 0.00 0.00 0.00 49 1009.0
20260906092524 83 0 0.0 1.7 0.00 0.00 0.00 49 1009.0
20260906092023 83 201 0.0 0.9 0.00 0.00 0.00 49 1009.0
20260906091554 83 0 0.0 0.9 0.00 0.00 0.00 49 1008.9
20260906091023 84 0 0.0 1.7 0.00 0.00 0.00 48 1009.0
20260906090530 84 0 0.0 1.7 0.00 0.00 0.00 47 1009.0
20260906090052 84 193 0.9 1.7 0.00 0.00 0.00 47 1009.1
20260906085527 84 0 0.0 0.9 0.00 0.00 0.00 47 1009.0
20260906085026 84 0 0.0 0.0 0.00 0.00 0.00 47 1009.0
20260906084547 84 0 0.0 0.0 0.00 0.00 0.00 45 1009.0
20260906084030 84 0 0.0 0.0 0.00 0.00 0.00 46 1009.2
20260906083524 84 0 0.0 0.0 0.00 0.00 0.00 45 1009.2
20260906083049 84 0 0.0 0.0 0.00 0.00 0.00 46 1009.1
20260906082523 84 0 0.0 0.0 0.00 0.00 0.00 46 1009.2
20260906082028 84 0 0.0 0.9 0.00 0.00 0.00 47 1009.3
20260906081549 84 0 0.0 0.9 0.00 0.00 0.00 46 1009.3
20260906081023 85 0 0.0 0.9 0.00 0.00 0.00 46 1009.4
20260906080524 85 192 0.0 0.9 0.00 0.00 0.00 46 1009.4
20260906080048 85 0 0.0 0.0 0.00 0.00 0.00 44 1009.4
20260906075525 85 0 0.0 0.0 0.00 0.00 0.00 44 1009.5
20260906075025 85 0 0.0 0.9 0.00 0.00 0.00 44 1009.5
20260906074548 85 0 0.0 1.7 0.00 0.00 0.00 45 1009.5
20260906074024 86 0 0.0 1.7 0.00 0.00 0.00 44 1009.5
20260906073525 86 0 0.0 0.0 0.00 0.00 0.00 43 1009.5
20260906073041 86 0 0.0 0.9 0.00 0.00 0.00 43 1009.5
20260906072526 87 0 0.0 0.9 0.00 0.00 0.00 43 1009.4
20260906072024 87 0 0.0 1.7 0.00 0.00 0.00 42 1009.5
20260906071548 87 0 0.0 1.7 0.00 0.00 0.00 41 1009.5
20260906071024 87 244 0.0 1.7 0.00 0.00 0.00 42 1009.5
20260906070524 87 0 0.0 0.9 0.00 0.00 0.00 42 1009.5
20260906070046 87 0 0.0 1.7 0.00 0.00 0.00 41 1009.7
20260906065525 87 0 0.0 1.7 0.00 0.00 0.00 41 1009.6
20260906065023 87 244 0.0 1.7 0.00 0.00 0.00 40 1009.6
20260906064540 87 244 0.0 0.9 0.00 0.00 0.00 41 1009.7
20260906064023 87 0 0.0 0.9 0.00 0.00 0.00 41 1009.6
20260906063527 87 0 0.0 0.9 0.00 0.00 0.00 41 1009.6
20260906063051 87 0 0.0 0.0 0.00 0.00 0.00 41 1009.7
20260906062528 88 0 0.0 1.7 0.00 0.00 0.00 40 1009.7
20260906062026 88 0 0.0 1.7 0.00 0.00 0.00 40 1009.7
20260906061548 88 0 0.0 1.7 0.00 0.00 0.00 39 1009.6
20260906061025 88 244 0.0 1.7 0.00 0.00 0.00 40 1009.7
20260906060528 88 265 0.0 1.7 0.00 0.00 0.00 39 1009.7
20260906060046 88 296 0.0 0.9 0.00 0.00 0.00 39 1009.7
20260906055524 89 0 0.0 0.9 0.00 0.00 0.00 39 1009.7
20260906055024 89 0 0.0 1.7 0.00 0.00 0.00 38 1009.7
20260906054550 89 0 0.0 1.7 0.00 0.00 0.00 37 1009.8
20260906054025 90 296 0.0 0.9 0.00 0.00 0.00 37 1009.7
20260906053524 90 0 0.0 0.9 0.00 0.00 0.00 36 1009.7
20260906053047 90 0 0.0 1.7 0.00 0.00 0.00 35 1009.7
20260906052522 90 0 0.0 1.7 0.00 0.00 0.00 35 1009.7
20260906052024 91 310 0.0 1.7 0.00 0.00 0.00 35 1009.7
20260906051556 91 310 0.0 1.7 0.00 0.00 0.00 35 1009.7
20260906051027 91 0 0.0 2.6 0.00 0.00 0.00 35 1009.7
20260906050525 91 0 0.0 2.6 0.00 0.00 0.00 34 1009.7
20260906050054 91 302 0.9 3.5 0.00 0.00 0.00 34 1009.8
20260906045525 91 302 0.9 3.5 0.00 0.00 0.00 34 1009.8
20260906045024 92 0 0.9 3.5 0.00 0.00 0.00 34 1009.8
20260906044556 92 321 0.9 3.5 0.00 0.00 0.00 33 1009.8
20260906044024 92 315 0.9 3.5 0.00 0.00 0.00 33 1009.7
20260906043523 92 360 0.9 4.3 0.00 0.00 0.00 33 1009.8
20260906043046 92 350 1.7 4.3 0.00 0.00 0.00 33 1009.7
20260906042523 92 326 1.7 4.3 0.00 0.00 0.00 33 1009.7
20260906042025 92 336 1.7 4.3 0.00 0.00 0.00 33 1009.8
20260906041544 92 324 1.7 4.3 0.00 0.00 0.00 32 1009.8
20260906041025 93 329 1.7 4.3 0.00 0.00 0.00 32 1009.8
20260906040523 93 338 1.7 4.3 0.00 0.00 0.00 32 1009.8
20260906040100 93 313 1.7 7.0 0.00 0.00 0.00 32 1009.8
20260906035523 93 344 1.7 7.0 0.00 0.00 0.00 31 1009.7
20260906035025 93 344 1.7 5.2 0.00 0.00 0.00 31 1009.7
20260906034546 93 340 1.7 5.2 0.00 0.00 0.00 31 1009.7
20260906034024 93 343 1.7 8.7 0.00 0.00 0.00 31 1009.7
20260906033526 94 309 2.6 8.7 0.00 0.00 0.00 31 1009.6
20260906033049 94 329 2.6 7.8 0.00 0.00 0.00 31 1009.5
20260906032525 94 344 1.7 7.8 0.00 0.00 0.00 31 1009.4
20260906032025 94 307 2.6 7.8 0.00 0.00 0.00 31 1009.4
20260906031546 94 338 0.9 7.0 0.00 0.00 0.00 31 1009.3
20260906031024 94 313 1.7 7.0 0.00 0.00 0.00 31 1009.2
20260906030526 94 313 1.7 7.0 0.00 0.00 0.00 31 1009.3
20260906030050 94 306 1.7 7.0 0.00 0.00 0.00 31 1009.2
20260906025523 94 302 1.7 7.0 0.00 0.00 0.00 30 1009.2
20260906025024 95 321 2.6 7.0 0.00 0.00 0.00 30 1009.2
20260906024550 95 321 1.7 6.1 0.00 0.00 0.00 29 1009.3
20260906024025 95 324 1.7 6.1 0.00 0.00 0.00 29 1009.3
20260906023525 95 317 1.7 6.1 0.00 0.00 0.00 29 1009.2
20260906023047 95 329 1.7 5.2 0.00 0.00 0.00 29 1009.2
20260906022528 95 321 2.6 7.0 0.00 0.00 0.00 29 1009.0
20260906022024 95 338 2.6 7.0 0.00 0.00 0.00 29 1008.9
20260906021546 96 348 2.6 8.7 0.00 0.00 0.00 29 1009.0
20260906021024 96 350 3.5 8.7 0.00 0.00 0.00 28 1009.0
20260906020524 96 336 3.5 8.7 0.00 0.00 0.00 28 1009.0
20260906020052 96 314 3.5 8.7 0.00 0.00 0.00 28 1008.9
20260906015522 96 313 3.5 8.7 0.00 0.00 0.00 28 1008.9
20260906015023 96 307 3.5 8.7 0.00 0.00 0.00 28 1009.0
20260906014618 96 311 3.5 8.7 0.00 0.00 0.00 28 1008.9
20260906014024 96 323 2.6 7.8 0.00 0.00 0.00 28 1009.0
20260906013525 97 342 2.6 10.4 0.00 0.00 0.00 28 1008.9
20260906013055 97 302 5.2 10.4 0.00 0.00 0.00 28 1008.9
20260906012524 97 331 3.5 10.4 0.00 0.00 0.00 28 1009.0
20260906012023 97 309 4.3 9.6 0.00 0.00 0.00 27 1009.1
20260906011549 98 304 4.3 9.6 0.00 0.00 0.00 27 1009.2
20260906011026 98 287 3.5 9.6 0.00 0.00 0.00 27 1009.1
20260906010525 98 301 2.6 9.6 0.00 0.00 0.00 27 1009.2
20260906010051 98 326 3.5 8.7 0.00 0.00 0.00 27 1009.1
20260906005525 99 302 3.5 13.0 0.00 0.00 0.00 27 1009.1
20260906005025 99 346 2.6 13.0 0.00 0.00 0.00 27 1009.0
20260906004544 99 315 4.3 9.6 0.00 0.00 0.00 27 1009.0
20260906004026 99 294 3.5 10.4 0.00 0.00 0.00 28 1008.9
20260906003524 99 314 4.3 10.4 0.00 0.00 0.00 27 1009.0
20260906003054 99 339 2.6 10.4 0.00 0.00 0.00 28 1009.0
20260906002523 99 317 4.3 10.4 0.00 0.00 0.00 28 1009.1
20260906002025 99 323 5.2 12.2 0.00 0.00 0.00 28 1009.0
20260906001548 100 315 3.5 12.2 0.00 0.00 0.00 28 1009.0
20260906001024 100 312 4.3 9.6 0.00 0.00 0.00 28 1008.9
20260906000525 100 5 2.6 9.6 0.00 0.00 0.00 29 1008.8
20260906000046 100 321 2.6 10.4 0.00 0.00 0.00 29 1008.8
20260905235524 100 344 4.3 10.4 0.00 0.00 0.00 29 1008.8
20260905235029 100 352 5.2 10.4 0.00 0.00 0.00 29 1008.7
20260905234542 100 324 4.3 8.7 0.00 0.00 0.00 29 1008.7
20260905234023 101 334 2.6 9.6 0.00 0.00 0.00 29 1008.6
20260905233530 101 323 2.6 9.6 0.00 0.00 0.00 29 1008.7
20260905233048 101 268 1.7 9.6 0.00 0.00 0.00 29 1008.8
20260905232525 101 279 2.6 9.6 0.00 0.00 0.00 29 1008.9
20260905232025 101 319 2.6 8.7 0.00 0.00 0.00 29 1008.8
20260905231546 101 352 3.5 8.7 0.00 0.00 0.00 29 1008.8
20260905231025 101 346 1.7 7.8 0.00 0.00 0.00 29 1008.8
20260905230525 101 30 2.6 7.8 0.00 0.00 0.00 29 1008.7
20260905230052 101 0 0.0 6.1 0.00 0.00 0.00 29 1008.8
20260905225523 101 267 1.7 6.1 0.00 0.00 0.00 29 1008.7
20260905225024 101 275 0.0 7.8 0.00 0.00 0.00 29 1008.8
20260905224546 101 301 2.6 7.8 0.00 0.00 0.00 29 1008.8
20260905224024 101 345 2.6 7.8 0.00 0.00 0.00 29 1008.9
20260905223525 101 331 1.7 10.4 0.00 0.00 0.00 29 1008.9
20260905223054 101 255 3.5 10.4 0.00 0.00 0.00 30 1009.0
20260905222524 101 300 5.2 9.6 0.00 0.00 0.00 29 1009.1
20260905222023 101 286 2.6 7.0 0.00 0.00 0.00 29 1009.1
20260905221607 101 166 0.9 6.1 0.00 0.00 0.00 29 1009.1
20260905221025 101 201 1.7 7.8 0.00 0.00 0.00 29 1009.2
20260905220527 100 224 0.9 10.4 0.00 0.00 0.00 30 1009.3
20260905220046 100 313 3.5 10.4 0.00 0.00 0.00 30 1009.4
20260905215524 102 305 1.7 7.8 0.00 0.00 0.00 29 1009.4
20260905215023 101 193 2.6 8.7 0.00 0.00 0.00 29 1009.4
20260905214555 101 199 3.5 8.7 0.00 0.00 0.00 29 1009.6
20260905214023 101 205 2.6 8.7 0.00 0.00 0.00 30 1009.7
20260905213528 100 329 2.6 7.0 0.00 0.00 0.00 30 1009.8
20260905213058 100 169 1.7 7.0 0.00 0.00 0.00 30 1009.8
20260905212525 101 342 1.7 7.0 0.00 0.00 0.00 30 1009.9
20260905212025 100 313 1.7 7.8 0.00 0.00 0.00 31 1009.9
20260905211548 99 316 1.7 7.8 0.00 0.00 0.00 30 1009.9
20260905211026 99 54 0.9 3.5 0.00 0.00 0.00 31 1010.0
20260905210526 99 17 1.7 3.5 0.00 0.00 0.00 30 1010.2
20260905210051 99 0 0.0 2.6 0.00 0.00 0.00 31 1010.3
20260905205524 99 0 0.0 4.3 0.00 0.00 0.00 30 1010.3
20260905205026 99 0 0.9 5.2 0.00 0.00 0.00 30 1010.4
20260905204549 100 213 1.7 5.2 0.00 0.00 0.00 30 1010.5
20260905204024 100 0 0.0 4.3 0.00 0.00 0.00 29 1010.6
20260905203524 100 0 0.0 7.0 0.00 0.00 0.00 30 1010.7
20260905203048 99 197 1.7 7.0 0.00 0.00 0.00 30 1010.8
20260905202524 100 229 1.7 7.8 0.00 0.00 0.00 30 1010.9
20260905202025 100 246 1.7 9.6 0.00 0.00 0.00 30 1010.9
20260905201601 100 247 3.5 9.6 0.00 0.00 0.00 29 1011.1
20260905201024 101 334 1.7 6.1 0.00 0.00 0.00 29 1011.1
20260905200524 101 0 1.7 7.8 0.00 0.00 0.00 29 1011.1
20260905200047 101 240 1.7 7.8 0.00 0.00 0.00 29 1011.1
20260905195527 101 260 1.7 7.8 0.00 0.00 0.00 29 1011.2
20260905195024 100 265 0.9 3.5 0.00 0.00 0.00 30 1011.2